Coleman, TX

4:52 AM CST on February 22, 2017 (GMT -0600)
Coleman Municipal

Weather History for KCOM - May, 2013

Change the Weather History Date:

Tuesday, May 21, 2013

  Actual Average (KABI) Record (KABI)
Temperature  
Mean Temperature 72 °F -  
Max Temperature 85 °F 84 °F 101 °F (1953)
Min Temperature 60 °F 61 °F 47 °F (1911)
Cooling Degree Days 8    
Growing Degree Days 22 (Base 50)    
Moisture  
Dew Point 57 °F    
Average Humidity 59    
Maximum Humidity 83    
Minimum Humidity 30    
Precipitation  
Precipitation 0.00 in - - ()
Sea Level Pressure  
Sea Level Pressure 29.82 in    
Wind  
Wind Speed 14 mph (SSE)    
Max Wind Speed 31 mph    
Max Gust Speed 40 mph    
Visibility 10 miles    
Events      
Averages and records for this station are not official NWS values.
T = Trace of Precipitation, MM = Missing Value Source: NWS Daily Summary

Daily Weather History Graph

Daily Weather History Graph

Search for Another Location

Airport or City:

Trip Planner

Search our weather history database for the weather conditions in past years. The results will help you decide how hot, cold, wet, or windy it might be!

Date:

Astronomy

May. 21, 2013 Rise Set
Actual Time 6:36 AM CDT 8:31 PM CDT
Civil Twilight 6:09 AM CDT 8:59 PM CDT
Nautical Twilight 5:36 AM CDT 9:32 PM CDT
Astronomical Twilight 5:01 AM CDT 10:07 PM CDT
Moon 4:59 PM CDT (5/21) 3:51 AM CDT (5/21)
Length of Visible Light 14h 49m
Length of Day
13h 55m
Waxing Gibbous, 84% of the Moon is Illuminated
May 21
Waxing Gibbous
May 24
Full
May 31
Last Quarter
Jun 8
New
Jun 16
First Quarter

Hourly Weather History & Observations

Time (CDT) Temp. Heat Index Dew Point Humidity Pressure Visibility Wind Dir Wind Speed Gust Speed Precip Events Conditions
12:15 AM 78.1 °F - 63.7 °F 61% 29.77 in 10.0 mi SSE 19.6 mph 26.5 mph N/A   Clear
12:35 AM 77.9 °F - 64.2 °F 63% 29.77 in 10.0 mi SSE 18.4 mph 29.9 mph N/A   Clear
12:55 AM 77.5 °F - 64.4 °F 64% 29.77 in 10.0 mi SSE 19.6 mph 26.5 mph N/A   Clear
1:15 AM 77.0 °F - 64.6 °F 65% 29.77 in 10.0 mi South 16.1 mph 25.3 mph N/A   Clear
1:35 AM 76.6 °F - 64.8 °F 67% 29.77 in 10.0 mi South 13.8 mph 21.9 mph N/A   Clear
1:55 AM 76.5 °F - 64.8 °F 67% 29.76 in 10.0 mi South 15.0 mph 26.5 mph N/A   Clear
2:15 AM 76.1 °F - 64.6 °F 67% 29.75 in 10.0 mi South 13.8 mph 21.9 mph N/A   Clear
2:35 AM 75.4 °F - 64.6 °F 69% 29.74 in 10.0 mi South 12.7 mph 20.7 mph N/A   Clear
2:55 AM 74.7 °F - 64.8 °F 71% 29.74 in 10.0 mi South 11.5 mph - N/A   Clear
3:15 AM 74.3 °F - 64.8 °F 72% 29.73 in 10.0 mi South 12.7 mph 18.4 mph N/A   Clear
3:35 AM 73.8 °F - 64.8 °F 73% 29.73 in 10.0 mi South 12.7 mph - N/A   Clear
3:55 AM 73.8 °F - 64.9 °F 74% 29.73 in 10.0 mi South 11.5 mph 17.3 mph N/A   Clear
4:15 AM 73.4 °F - 65.3 °F 76% 29.74 in 10.0 mi South 10.4 mph 16.1 mph N/A   Clear
4:35 AM 73.4 °F - 65.3 °F 76% 29.74 in 10.0 mi South 11.5 mph 16.1 mph N/A   Clear
4:55 AM 72.9 °F - 65.3 °F 77% 29.74 in 10.0 mi South 10.4 mph - N/A   Clear
5:15 AM 72.5 °F - 65.3 °F 78% 29.74 in 10.0 mi South 10.4 mph - N/A   Clear
5:35 AM 72.3 °F - 65.3 °F 78% 29.74 in 10.0 mi South 8.1 mph - N/A   Clear
5:55 AM 71.6 °F - 65.3 °F 80% 29.74 in 10.0 mi South 6.9 mph - N/A   Clear
6:15 AM 71.2 °F - 65.3 °F 81% 29.75 in 10.0 mi South 4.6 mph - N/A   Clear
6:35 AM 70.7 °F - 65.3 °F 83% 29.75 in 10.0 mi SSE 6.9 mph - N/A   Clear
6:55 AM 70.2 °F - 64.9 °F 83% 29.76 in 10.0 mi SSE 6.9 mph - N/A   Clear
7:15 AM 70.7 °F - 65.3 °F 83% 29.77 in 10.0 mi SSE 8.1 mph - N/A   Clear
7:35 AM 71.6 °F - 65.3 °F 80% 29.77 in 10.0 mi SSE 9.2 mph - N/A   Clear
7:55 AM 72.5 °F - 65.3 °F 78% 29.77 in 10.0 mi SSE 11.5 mph - N/A   Clear
8:15 AM 73.4 °F - 65.3 °F 76% 29.78 in 10.0 mi SSE 12.7 mph - N/A   Clear
8:35 AM 74.5 °F - 65.3 °F 73% 29.78 in 10.0 mi South 13.8 mph 19.6 mph N/A   Scattered Clouds
8:55 AM 75.2 °F - 65.3 °F 71% 29.80 in 10.0 mi South 12.7 mph 20.7 mph N/A   Scattered Clouds
9:15 AM 74.7 °F - 65.3 °F 73% 29.81 in 10.0 mi South 13.8 mph 20.7 mph N/A   Overcast
9:35 AM 74.5 °F - 65.3 °F 73% 29.82 in 10.0 mi South 13.8 mph 17.3 mph N/A   Overcast
9:55 AM 76.1 °F - 65.5 °F 70% 29.82 in 10.0 mi South 12.7 mph 17.3 mph N/A   Overcast
10:15 AM 76.3 °F - 65.7 °F 70% 29.82 in 10.0 mi South 17.3 mph 21.9 mph N/A   Overcast
10:35 AM 76.1 °F - 65.8 °F 70% 29.82 in 10.0 mi SSW 17.3 mph 23.0 mph N/A   Overcast
10:55 AM 76.3 °F - 66.2 °F 71% 29.83 in 7.0 mi SSW 13.8 mph 21.9 mph N/A   Overcast
11:15 AM 76.6 °F - 66.2 °F 70% 29.83 in 7.0 mi SSW 12.7 mph - N/A   Overcast
11:35 AM 78.1 °F - 67.1 °F 69% 29.83 in 7.0 mi SSW 12.7 mph 19.6 mph N/A   Overcast
11:55 AM 79.7 °F - 67.1 °F 65% 29.83 in 7.0 mi SSW 10.4 mph 18.4 mph N/A   Overcast
12:15 PM 82.6 °F 85.3 °F 67.3 °F 60% 29.82 in 10.0 mi SSW 11.5 mph 17.3 mph N/A   Mostly Cloudy
12:35 PM 84.4 °F 87.1 °F 66.9 °F 56% 29.81 in 7.0 mi SW 10.4 mph 16.1 mph N/A   Scattered Clouds
12:55 PM 84.9 °F 87.4 °F 66.7 °F 54% 29.85 in 10.0 mi NW 18.4 mph 29.9 mph N/A   Mostly Cloudy
1:15 PM 66.6 °F - 53.4 °F 63% 29.87 in 10.0 mi North 31.1 mph 40.3 mph N/A   Overcast
1:35 PM 69.8 °F - 53.1 °F 55% 29.87 in 10.0 mi North 23.0 mph 33.4 mph N/A   Mostly Cloudy
1:55 PM 66.0 °F - 51.8 °F 60% 29.88 in 10.0 mi North 23.0 mph 34.5 mph N/A   Clear
2:15 PM 69.4 °F - 50.4 °F 51% 29.87 in 10.0 mi North 28.8 mph 34.5 mph N/A   Scattered Clouds
2:35 PM 70.9 °F - 49.5 °F 47% 29.87 in 10.0 mi North 21.9 mph 34.5 mph N/A   Clear
2:55 PM 72.1 °F - 48.4 °F 43% 29.87 in 10.0 mi NNE 25.3 mph 35.7 mph N/A   Scattered Clouds
3:15 PM 73.6 °F - 47.1 °F 39% 29.87 in 10.0 mi North 24.2 mph 32.2 mph N/A   Scattered Clouds
3:35 PM 74.5 °F - 47.3 °F 38% 29.86 in 10.0 mi NNE 21.9 mph 32.2 mph N/A   Clear
3:55 PM 75.7 °F - 48.2 °F 38% 29.85 in 10.0 mi North 20.7 mph 26.5 mph N/A   Clear
4:15 PM 76.8 °F - 47.8 °F 36% 29.84 in 10.0 mi North 18.4 mph 24.2 mph N/A   Clear
4:35 PM 77.0 °F - 47.7 °F 35% 29.84 in 10.0 mi North 18.4 mph 25.3 mph N/A   Clear
4:55 PM 77.2 °F - 46.8 °F 34% 29.83 in 10.0 mi North 17.3 mph 21.9 mph N/A   Clear
5:15 PM 78.1 °F - 46.6 °F 33% 29.83 in 10.0 mi North 16.1 mph 21.9 mph N/A   Clear
5:35 PM 77.9 °F - 46.4 °F 33% 29.83 in 10.0 mi North 11.5 mph 17.3 mph N/A   Clear
5:55 PM 77.9 °F - 45.7 °F 32% 29.83 in 10.0 mi North 15.0 mph 23.0 mph N/A   Clear
6:15 PM 78.4 °F - 45.9 °F 32% 29.83 in 10.0 mi North 16.1 mph 20.7 mph N/A   Clear
6:35 PM 79.2 °F - 46.0 °F 31% 29.83 in 10.0 mi North 11.5 mph 16.1 mph N/A   Clear
6:55 PM 78.8 °F - 45.0 °F 30% 29.83 in 10.0 mi NNW 13.8 mph 18.4 mph N/A   Clear
7:15 PM 78.4 °F - 45.0 °F 30% 29.84 in 10.0 mi North 10.4 mph - N/A   Clear
7:35 PM 77.7 °F - 44.1 °F 30% 29.85 in 10.0 mi NNE 12.7 mph - N/A   Clear
7:55 PM 76.5 °F - 43.7 °F 31% 29.85 in 10.0 mi North 9.2 mph - N/A   Clear
8:15 PM 74.3 °F - 44.4 °F 34% 29.87 in 10.0 mi NNE 6.9 mph - N/A   Clear
8:35 PM 71.6 °F - 45.0 °F 38% 29.87 in 10.0 mi North 4.6 mph - N/A   Clear
8:55 PM 69.6 °F - 45.5 °F 42% 29.88 in 10.0 mi NNE 3.5 mph - N/A   Clear
9:15 PM 67.8 °F - 45.9 °F 45% 29.89 in 10.0 mi Calm Calm - N/A   Clear
9:35 PM 68.7 °F - 45.7 °F 44% 29.89 in 10.0 mi Calm Calm - N/A   Clear
9:55 PM 65.3 °F - 47.3 °F 52% 29.90 in 10.0 mi Calm Calm - N/A   Clear
10:15 PM 65.8 °F - 47.3 °F 51% 29.91 in 10.0 mi Calm Calm - N/A   Clear
10:35 PM 64.6 °F - 46.9 °F 53% 29.91 in 10.0 mi Calm Calm - N/A   Clear
10:55 PM 63.1 °F - 48.4 °F 59% 29.91 in 10.0 mi Calm Calm - N/A   Clear
11:15 PM 61.9 °F - 49.6 °F 64% 29.92 in 10.0 mi Calm Calm - N/A   Clear
11:35 PM 61.5 °F - 48.7 °F 63% 29.93 in 10.0 mi Calm Calm - N/A   Clear
11:55 PM 60.8 °F - 49.1 °F 65% 29.93 in 10.0 mi Calm Calm - N/A   Clear